| time (UTC) | temp F | wind direction | speed knots | gust knots | rain 1hr in | rain 24hr in | rain mn in | humidity % | barometer mb |
| 20260510200604 | 51 | 338 | 0.9 | 4.3 | 0.00 | 0.00 | 0.00 | 3 | 1014.0 |
| 20260510200105 | 51 | 0 | 0.9 | 5.2 | 0.00 | 0.00 | 0.00 | 3 | 1014.0 |
| 20260510190604 | 51 | 52 | 0.9 | 2.6 | 0.00 | 0.00 | 0.00 | 3 | 1013.6 |
| 20260510190106 | 51 | 56 | 1.7 | 11.3 | 0.00 | 0.00 | 0.00 | 3 | 1013.6 |
| 20260510180604 | 51 | 65 | 1.7 | 11.3 | 0.00 | 0.00 | 0.00 | 3 | 1013.6 |
| 20260510170604 | 51 | 344 | 2.6 | 7.0 | 0.00 | 0.00 | 0.00 | 3 | 1013.9 |
| 20260510170106 | 51 | 339 | 2.6 | 13.9 | 0.00 | 0.00 | 0.00 | 3 | 1013.9 |
| 20260510160604 | 51 | 336 | 1.7 | 7.8 | 0.00 | 0.00 | 0.00 | 3 | 1014.4 |
| 20260510160106 | 51 | 18 | 3.5 | 11.3 | 0.00 | 0.00 | 0.00 | 3 | 1014.4 |
| 20260510150604 | 51 | 8 | 1.7 | 7.0 | 0.00 | 0.00 | 0.00 | 3 | 1014.9 |
| 20260510150106 | 51 | 50 | 4.3 | 12.2 | 0.00 | 0.00 | 0.00 | 3 | 1014.9 |
| 20260510140604 | 51 | 68 | 3.5 | 10.4 | 0.00 | 0.00 | 0.00 | 3 | 1015.4 |
| 20260510140106 | 51 | 59 | 4.3 | 13.9 | 0.00 | 0.00 | 0.00 | 3 | 1015.4 |
| 20260510130604 | 51 | 329 | 2.6 | 6.1 | 0.00 | 0.00 | 0.00 | 3 | 1015.4 |
| 20260510130106 | 51 | 12 | 3.5 | 13.0 | 0.00 | 0.00 | 0.00 | 3 | 1015.4 |
| 20260510120604 | 51 | 46 | 1.7 | 10.4 | 0.00 | 0.00 | 0.00 | 3 | 1015.8 |
| 20260510120106 | 51 | 14 | 3.5 | 12.2 | 0.00 | 0.00 | 0.00 | 3 | 1015.8 |
| 20260510110604 | 51 | 12 | 3.5 | 8.7 | 0.00 | 0.00 | 0.00 | 3 | 1016.4 |
| 20260510110106 | 51 | 48 | 2.6 | 13.9 | 0.00 | 0.00 | 0.00 | 3 | 1016.4 |
| 20260510100604 | 51 | 58 | 5.2 | 12.2 | 0.00 | 0.00 | 0.00 | 3 | 1016.8 |
| 20260510100106 | 51 | 58 | 3.5 | 17.4 | 0.00 | 0.00 | 0.00 | 3 | 1016.8 |
| 20260510090105 | 51 | 63 | 6.1 | 12.2 | 0.00 | 0.00 | 0.00 | 3 | 1017.0 |
| 20260510080603 | 51 | 161 | 2.6 | 10.4 | 0.00 | 0.00 | 0.00 | 3 | 1017.2 |
| 20260510080111 | 51 | 53 | 1.7 | 14.8 | 0.00 | 0.00 | 0.00 | 3 | 1017.2 |
| 20260510060603 | 51 | 0 | 2.6 | 6.1 | 0.00 | 0.00 | 0.00 | 3 | 1016.6 |
| 20260510050604 | 51 | 52 | 0.9 | 6.1 | 0.00 | 0.00 | 0.00 | 3 | 1016.9 |
| 20260510050105 | 51 | 59 | 0.9 | 7.0 | 0.00 | 0.00 | 0.00 | 3 | 1016.8 |
| 20260510040603 | 51 | 329 | 0.9 | 4.3 | 0.00 | 0.00 | 0.00 | 3 | 1016.9 |
| 20260510030604 | 51 | 41 | 0.9 | 2.6 | 0.00 | 0.00 | 0.00 | 3 | 1017.1 |
| 20260510030105 | 51 | 58 | 0.0 | 10.4 | 0.00 | 0.00 | 0.00 | 3 | 1017.2 |
| 20260510020603 | 51 | 244 | 0.9 | 6.1 | 0.00 | 0.00 | 0.00 | 3 | 1017.1 |
| 20260510020105 | 51 | 54 | 1.7 | 8.7 | 0.00 | 0.00 | 0.00 | 3 | 1017.0 |
| 20260510010105 | 51 | 61 | 1.7 | 5.2 | 0.00 | 0.00 | 0.00 | 3 | 1016.8 |
| 20260510000604 | 51 | 11 | 0.0 | 5.2 | 0.00 | 0.00 | 0.00 | 3 | 1016.9 |
| 20260510000105 | 51 | 9 | 0.0 | 4.3 | 0.00 | 0.00 | 0.00 | 3 | 1016.9 |
| 20260509230604 | 51 | 328 | 1.7 | 4.3 | 0.00 | 0.00 | 0.00 | 3 | 1016.6 |
| 20260509230106 | 51 | 350 | 1.7 | 5.2 | 0.00 | 0.00 | 0.00 | 3 | 1016.6 |
| 20260509220604 | 51 | 40 | 0.9 | 2.6 | 0.00 | 0.00 | 0.00 | 3 | 1016.2 |
| 20260509220106 | 51 | 327 | 0.9 | 5.2 | 0.00 | 0.00 | 0.00 | 3 | 1016.3 |
| 20260509210603 | 51 | 333 | 0.9 | 2.6 | 0.00 | 0.00 | 0.00 | 3 | 1016.0 |
| 20260509210106 | 51 | 333 | 0.9 | 5.2 | 0.00 | 0.00 | 0.00 | 3 | 1016.0 |